EW7285 Weather Reports


Display with metric or nautical units.
time (UTC)temp
F
wind
direction
speed
MPH
gust
MPH
rain 1hr
in
rain 24hr
in
rain mn
in
humidity
%
barometer
mb
20260502231527 60 351 3.0 6.0 0.00 0.00 0.00 48 1005.7
20260502230022 61 5 8.0 11.0 0.00 0.00 0.00 46 1005.8
20260502224530 62 264 4.0 9.0 0.00 0.00 0.00 45 1005.6
20260502223014 63 254 5.0 10.0 0.00 0.00 0.00 44 1005.6
20260502221511 63 261 5.0 11.0 0.00 0.00 0.00 44 1005.7
20260502220008 63 261 6.0 10.0 0.00 0.00 0.00 43 1005.6
20260502214506 64 267 4.0 11.0 0.00 0.00 0.00 43 1005.7
20260502213008 64 238 6.0 11.0 0.00 0.00 0.00 43 1005.9
20260502211505 64 229 5.0 20.0 0.00 0.00 0.00 42 1005.9
20260502210004 65 260 7.0 14.0 0.00 0.00 0.00 40 1005.9
20260502204503 65 238 9.0 15.0 0.00 0.00 0.00 39 1006.1
20260502203002 65 238 11.0 18.0 0.00 0.00 0.00 38 1005.9
20260502201502 66 217 10.0 21.0 0.00 0.00 0.00 38 1006.0
20260502200002 66 266 7.0 17.0 0.00 0.00 0.00 39 1006.0
20260502194500 66 238 10.0 15.0 0.00 0.00 0.00 40 1005.8
20260502193100 65 236 4.0 11.0 0.00 0.00 0.00 41 1005.8
20260502193001 65 217 4.0 11.0 0.00 0.00 0.00 41 1005.8
20260502191610 64 225 1.0 4.0 0.00 0.00 0.00 41 1005.8
20260502190059 65 242 0.0 3.0 0.00 0.00 0.00 40 1005.6
20260502184600 66 242 0.0 0.0 0.00 0.00 0.00 39 1005.5
20260502183111 67 242 2.0 6.0 0.00 0.00 0.00 37 1005.4
20260502181557 68 247 3.0 8.0 0.00 0.00 0.00 37 1005.5
20260502163053 72 219 7.0 14.0 0.00 0.00 0.00 34 1005.5
20260502161549 72 221 6.0 18.0 0.00 0.00 0.00 35 1005.7
20260502151539 72 262 12.0 17.0 0.00 0.00 0.00 34 1006.4
20260502123009 71 230 15.0 21.0 0.00 0.00 0.00 35 1008.6
20260502121506 70 190 10.0 24.0 0.00 0.00 0.00 37 1008.7
20260502114502 69 263 14.0 27.0 0.00 0.00 0.00 36 1009.3
20260502113116 69 220 17.0 30.0 0.00 0.00 0.00 37 1009.6
20260502111606 68 262 18.0 25.0 0.00 0.00 0.00 38 1009.9
20260502110104 68 231 15.0 26.0 0.00 0.00 0.00 38 1010.0
20260502104555 68 244 14.0 24.0 0.00 0.00 0.00 38 1010.3
20260502103112 67 235 15.0 28.0 0.00 0.00 0.00 38 1010.2
20260502101557 66 235 18.0 28.0 0.00 0.00 0.00 39 1010.5
20260502100148 66 242 14.0 25.0 0.00 0.00 0.00 39 1010.6
20260502071521 60 234 16.0 28.0 0.00 0.00 0.00 39 1012.1
20260502070018 59 223 13.0 22.0 0.00 0.00 0.00 42 1012.0
20260502064515 59 246 13.0 21.0 0.00 0.00 0.00 43 1012.1
20260502063013 58 217 15.0 24.0 0.00 0.00 0.00 43 1012.2
20260502061512 58 215 8.0 16.0 0.00 0.00 0.00 47 1012.4
20260502060010 57 223 10.0 16.0 0.00 0.00 0.00 47 1012.3
20260502054511 57 202 7.0 13.0 0.00 0.00 0.00 48 1012.4
20260502053009 56 225 7.0 12.0 0.00 0.00 0.00 50 1012.5
20260502051506 55 243 7.0 16.0 0.00 0.00 0.00 51 1012.6
20260502050003 55 210 7.0 12.0 0.00 0.00 0.00 53 1012.7
20260502044501 54 237 8.0 13.0 0.00 0.00 0.00 54 1012.7
20260502043108 54 245 5.0 15.0 0.00 0.00 0.00 56 1012.7
20260502041557 53 208 7.0 12.0 0.00 0.00 0.00 56 1012.8
20260502040055 53 232 4.0 10.0 0.00 0.00 0.00 57 1012.8
20260502034554 52 230 4.0 9.0 0.00 0.00 0.00 58 1012.9
20260502033052 52 198 5.0 8.0 0.00 0.00 0.00 58 1012.9
20260502031550 52 189 4.0 9.0 0.00 0.00 0.00 58 1013.0
20260502030100 52 238 6.0 10.0 0.00 0.00 0.00 58 1013.2
20260502024545 52 200 4.0 11.0 0.00 0.00 0.00 57 1013.4
20260502023043 53 221 4.0 7.0 0.00 0.00 0.00 57 1013.5
20260502021540 53 221 6.0 10.0 0.00 0.00 0.00 57 1013.6
20260502020038 53 238 3.0 10.0 0.00 0.00 0.00 56 1013.7
20260502014536 53 211 5.0 13.0 0.00 0.00 0.00 55 1013.8
20260502013033 54 214 7.0 16.0 0.00 0.00 0.00 54 1013.9
20260502011530 54 235 9.0 11.0 0.00 0.00 0.00 53 1014.1
20260502010026 54 227 5.0 10.0 0.00 0.00 0.00 53 1014.1
20260502004524 54 205 6.0 11.0 0.00 0.00 0.00 52 1014.3
20260502003020 55 234 4.0 14.0 0.00 0.00 0.00 52 1014.3
20260502001519 55 188 6.0 14.0 0.00 0.00 0.00 51 1014.3
20260502000016 55 232 7.0 12.0 0.00 0.00 0.00 51 1014.5
20260501234511 56 239 6.0 15.0 0.00 0.00 0.00 51 1014.5
20260501233008 56 230 6.0 11.0 0.00 0.00 0.00 50 1014.7